Orbital Elements
Epoch 2014 Oct. 30.0 TT = JDT 2456960.5
T 2014 Nov. 15.81319 TT MPCW
q 1.8195633 (2000.0) P Q
n 0.08978217 Peri. 47.27229 -0.98918815 +0.02922786
a 4.9394204 Node 133.84020 -0.06667292 -0.96243927
e 0.6316241 Incl. 11.49278 +0.13061976 -0.26991921
P 10.98
From 1025 observations 1939 Mar. 14-2015 Aug. 12, mean residual 0".7.
Nongravitational parameters A1 = +0.03, A2 = -0.0108.
|